This demonstration page uses our WeatherBlox Daily Observations layout. Learn more.

38.88101, -77.10428

Hourly Observations for October 12, 2016

Temp ( °F °C ) Dew Point ( °F °C ) Humidity (%) Winds ( mph kmh ) Pressure ( in mb ) Visibility ( mi km ) Precip ( " mm )
12:52 am 00:52 Clear 54 12.2 49 9.4 83 83 Calm 30.39 1029 10 16.09344 0 0
1:52 am 01:52 Clear 55 12.8 51 10.6 87 87 ENE 3 6 30.39 1029 10 16.09344 0 0
2:52 am 02:52 Mostly Clear 53 11.7 50 10 89 89 ENE 5 7 30.36 1028 10 16.09344 0 0
3:52 am 03:52 Clear 52 11.1 50 10 93 93 ENE 6 9 30.36 1028 10 16.09344 0 0
4:52 am 04:52 Clear 51 10.6 50 10 96 96 NE 6 9 30.36 1028 10 16.09344 0 0
5:52 am 05:52 Mostly Cloudy 51 10.6 49 9.4 92 92 NE 5 7 30.36 1028 10 16.09344 0 0
6:52 am 06:52 Mostly Cloudy 51 10.6 49 9.4 92 92 ENE 7 11 30.36 1028 10 16.09344 0 0
7:52 am 07:52 Mostly Cloudy 52 11.1 50 10 93 93 NE 3 6 30.36 1028 10 16.09344 0 0
8:52 am 08:52 Mostly Cloudy 55 12.8 51 10.6 87 87 NE 5 7 30.36 1028 10 16.09344 0 0
9:52 am 09:52 Mostly Cloudy 58 14.4 53 11.7 84 84 ENE 3 6 30.36 1028 10 16.09344 0 0
10:11 am 10:11 Mostly Cloudy 60 15.6 54 12.2 80 80 NE 3 6 30.36 1028 10 16.09344 0 0
10:52 am 10:52 Cloudy 62 16.7 55 12.8 78 78 E 3 6 30.36 1028 10 16.09344 0 0
11:52 am 11:52 Cloudy 64 17.8 50 10 60 60 S 5 7 30.36 1028 10 16.09344 0 0
12:52 pm 12:52 Mostly Cloudy 66 18.9 53 11.7 63 63 S 7 11 30.33 1027 10 16.09344 0 0
1:52 pm 13:52 Mostly Cloudy 67 19.4 53 11.7 61 61 S 3 6 30.3 1026 10 16.09344 0 0
2:52 pm 14:52 Mostly Cloudy 68 20 53 11.7 59 59 N 3 6 30.27 1025 10 16.09344 0 0
3:52 pm 15:52 Mostly Cloudy 69 20.6 54 12.2 59 59 S 3 6 30.24 1024 10 16.09344 0 0
4:52 pm 16:52 Mostly Cloudy 70 21.1 52 11.1 53 53 Calm 30.21 1023 10 16.09344 0 0
5:52 pm 17:52 Mostly Cloudy 67 19.4 55 12.8 66 66 S 7 11 30.21 1023 10 16.09344 0 0
6:52 pm 18:52 Partly Cloudy 64 17.8 53 11.7 68 68 SW 7 11 30.21 1023 10 16.09344 0 0
7:52 pm 19:52 Mostly Clear 63 17.2 53 11.7 70 70 S 3 6 30.21 1023 10 16.09344 0 0
8:52 pm 20:52 Clear 62 16.7 57 13.9 84 84 Calm 30.21 1023 10 16.09344 0 0
9:52 pm 21:52 Clear 60 15.6 56 13.3 86 86 Calm 30.21 1023 10 16.09344 0 0
10:52 pm 22:52 Clear 59 15 56 13.3 90 90 Calm 30.21 1023 10 16.09344 0 0
11:52 pm 23:52 Clear 58 14.4 55 12.8 90 90 WSW 5 7 30.18 1022 10 16.09344 0 0

Powered by AerisWeather